Time,TemperatureF,DewpointF,PressureIn,WindDirection,WindDirectionDegrees,WindSpeedMPH,WindSpeedGustMPH,Humidity,HourlyPrecipIn,Conditions,Clouds,dailyrainin,SolarRadiationWatts/m^2,SoftwareType,DateUTC
2014-01-14 00:00:00,46.2,42.5,29.63,SSE,163,2.0,8.0,87,0.00,,,0.00,0,WeatherCatV1.24B11,2014-01-14 05:00:00,
2014-01-14 00:01:00,46.2,42.5,29.63,SSE,163,1.0,5.0,87,0.00,,,0.00,0,WeatherCatV1.24B11,2014-01-14 05:01:00,
2014-01-14 00:06:00,46.3,42.7,29.63,SSE,167,4.0,4.0,87,0.00,,,0.00,0,WeatherCatV1.24B11,2014-01-14 05:06:00,
2014-01-14 00:12:00,46.3,42.7,29.62,SSW,206,3.0,7.0,87,0.00,,,0.00,0,WeatherCatV1.24B11,2014-01-14 05:12:00,
2014-01-14 00:17:00,46.4,42.7,29.62,SSE,157,0.0,5.0,87,0.00,,,0.00,0,WeatherCatV1.24B11,2014-01-14 05:17:00,
2014-01-14 00:22:00,46.5,42.8,29.62,South,190,0.0,3.0,87,0.00,,,0.00,0,WeatherCatV1.24B11,2014-01-14 05:22:00,
2014-01-14 00:27:00,46.5,42.8,29.62,SSE,157,0.0,4.0,87,0.00,,,0.00,0,WeatherCatV1.24B11,2014-01-14 05:27:00,
2014-01-14 00:32:00,46.6,42.9,29.62,SSE,168,0.0,6.0,87,0.00,,,0.00,0,WeatherCatV1.24B11,2014-01-14 05:32:00,
2014-01-14 00:36:00,46.6,42.9,29.61,South,169,3.0,7.0,87,0.00,,,0.00,0,WeatherCatV1.24B11,2014-01-14 05:36:00,
2014-01-14 00:41:00,46.6,42.9,29.61,SSE,166,1.0,4.0,87,0.00,,,0.00,0,WeatherCatV1.24B11,2014-01-14 05:41:00,
2014-01-14 00:47:00,46.7,43.0,29.61,SSE,156,2.0,3.0,87,0.00,,,0.00,0,WeatherCatV1.24B11,2014-01-14 05:47:00,
2014-01-14 00:52:00,46.7,43.0,29.61,South,169,0.0,2.0,87,0.00,,,0.00,0,WeatherCatV1.24B11,2014-01-14 05:52:00,
2014-01-14 00:57:00,46.7,43.0,29.61,South,173,0.0,4.0,87,0.00,,,0.00,0,WeatherCatV1.24B11,2014-01-14 05:57:00,
2014-01-14 01:01:00,46.8,43.1,29.61,SSE,161,0.0,3.0,87,0.00,,,0.00,0,WeatherCatV1.24B11,2014-01-14 06:01:00,
2014-01-14 01:06:00,46.8,43.1,29.61,SSE,161,0.0,1.0,87,0.00,,,0.00,0,WeatherCatV1.24B11,2014-01-14 06:06:00,
2014-01-14 01:11:00,46.9,43.2,29.61,South,176,0.0,6.0,87,0.00,,,0.00,0,WeatherCatV1.24B11,2014-01-14 06:11:00,
2014-01-14 01:17:00,47.0,43.3,29.62,SSE,166,2.0,9.0,87,0.00,,,0.00,0,WeatherCatV1.24B11,2014-01-14 06:17:00,
2014-01-14 01:22:00,47.1,43.4,29.62,SSE,159,2.0,3.0,87,0.00,,,0.00,0,WeatherCatV1.24B11,2014-01-14 06:22:00,
2014-01-14 01:27:00,47.2,43.5,29.62,SSE,150,1.0,3.0,87,0.00,,,0.00,0,WeatherCatV1.24B11,2014-01-14 06:27:00,
2014-01-14 01:32:00,47.3,43.6,29.61,South,179,2.0,6.0,87,0.00,,,0.00,0,WeatherCatV1.24B11,2014-01-14 06:32:00,
2014-01-14 01:37:00,47.4,43.7,29.61,SSE,156,3.0,4.0,87,0.00,,,0.00,0,WeatherCatV1.24B11,2014-01-14 06:37:00,
2014-01-14 01:38:00,47.4,43.7,29.61,SSE,167,2.0,5.0,87,0.00,,,0.00,0,WeatherCatV1.24B11,2014-01-14 06:38:00,
2014-01-14 01:43:00,47.5,43.8,29.61,South,171,1.0,2.0,87,0.00,,,0.00,0,WeatherCatV1.24B11,2014-01-14 06:43:00,
2014-01-14 01:48:00,47.5,43.8,29.61,SSE,163,0.0,4.0,87,0.00,,,0.00,0,WeatherCatV1.24B11,2014-01-14 06:48:00,
2014-01-14 01:53:00,47.6,43.9,29.61,South,172,2.0,4.0,87,0.00,,,0.00,0,WeatherCatV1.24B11,2014-01-14 06:53:00,
2014-01-14 01:58:00,47.6,43.9,29.61,SE,141,3.0,5.0,87,0.00,,,0.00,0,WeatherCatV1.24B11,2014-01-14 06:58:00,
2014-01-14 02:03:00,47.7,44.0,29.60,SSE,154,2.0,3.0,87,0.00,,,0.00,0,WeatherCatV1.24B11,2014-01-14 07:03:00,
2014-01-14 02:08:00,47.7,44.0,29.60,SSE,161,2.0,2.0,87,0.00,,,0.00,0,WeatherCatV1.24B11,2014-01-14 07:08:00,
2014-01-14 02:13:00,47.7,44.0,29.60,SSE,149,2.0,3.0,87,0.00,,,0.00,0,WeatherCatV1.24B11,2014-01-14 07:13:00,
2014-01-14 02:18:00,47.7,44.0,29.60,South,170,1.0,2.0,87,0.00,,,0.00,0,WeatherCatV1.24B11,2014-01-14 07:18:00,
2014-01-14 02:23:00,47.6,43.9,29.60,SSE,155,0.0,2.0,87,0.00,,,0.00,0,WeatherCatV1.24B11,2014-01-14 07:23:00,
2014-01-14 02:28:00,47.6,43.9,29.60,SSE,164,0.0,2.0,87,0.00,,,0.00,0,WeatherCatV1.24B11,2014-01-14 07:28:00,
2014-01-14 02:33:00,47.6,43.9,29.59,ESE,115,2.0,6.0,87,0.00,,,0.00,0,WeatherCatV1.24B11,2014-01-14 07:33:00,
2014-01-14 02:38:00,47.6,43.9,29.59,South,171,1.0,3.0,87,0.00,,,0.00,0,WeatherCatV1.24B11,2014-01-14 07:38:00,
2014-01-14 02:43:00,47.6,43.9,29.58,South,169,1.0,1.0,87,0.00,,,0.00,0,WeatherCatV1.24B11,2014-01-14 07:43:00,
2014-01-14 02:48:00,47.6,44.2,29.58,South,169,0.0,5.0,88,0.00,,,0.00,0,WeatherCatV1.24B11,2014-01-14 07:48:00,
2014-01-14 02:53:00,47.6,44.2,29.58,SE,145,0.0,1.0,88,0.00,,,0.00,0,WeatherCatV1.24B11,2014-01-14 07:53:00,
2014-01-14 02:58:00,47.6,44.2,29.58,SE,134,0.0,3.0,88,0.00,,,0.00,0,WeatherCatV1.24B11,2014-01-14 07:58:00,
2014-01-14 03:03:00,47.5,44.1,29.58,SE,136,0.0,2.0,88,0.00,,,0.00,0,WeatherCatV1.24B11,2014-01-14 08:03:00,
2014-01-14 03:08:00,47.5,44.1,29.58,SE,137,0.0,2.0,88,0.00,,,0.00,0,WeatherCatV1.24B11,2014-01-14 08:08:00,
2014-01-14 03:13:00,47.5,44.1,29.58,SSE,163,0.0,3.0,88,0.00,,,0.00,0,WeatherCatV1.24B11,2014-01-14 08:13:00,
2014-01-14 03:18:00,47.5,45.3,29.58,SSE,161,0.0,3.0,92,0.00,,,0.00,0,WeatherCatV1.24B11,2014-01-14 08:18:00,
2014-01-14 03:23:00,47.4,44.0,29.58,SSE,163,0.0,1.0,88,0.00,,,0.00,0,WeatherCatV1.24B11,2014-01-14 08:23:00,
2014-01-14 03:28:00,47.4,44.0,29.57,South,179,0.0,3.0,88,0.00,,,0.00,0,WeatherCatV1.24B11,2014-01-14 08:28:00,
2014-01-14 03:33:00,47.4,44.3,29.57,South,178,0.0,0.0,89,0.00,,,0.00,0,WeatherCatV1.24B11,2014-01-14 08:33:00,
2014-01-14 03:38:00,47.3,44.2,29.57,South,178,0.0,0.0,89,0.00,,,0.00,0,WeatherCatV1.24B11,2014-01-14 08:38:00,
2014-01-14 03:43:00,47.3,44.2,29.57,South,178,0.0,0.0,89,0.00,,,0.00,0,WeatherCatV1.24B11,2014-01-14 08:43:00,
2014-01-14 03:48:00,47.2,44.1,29.57,South,178,0.0,1.0,89,0.00,,,0.00,0,WeatherCatV1.24B11,2014-01-14 08:48:00,
2014-01-14 03:53:00,47.1,44.0,29.57,South,178,0.0,0.0,89,0.00,,,0.00,0,WeatherCatV1.24B11,2014-01-14 08:53:00,
2014-01-14 03:58:00,47.0,43.9,29.57,South,178,0.0,0.0,89,0.00,,,0.00,0,WeatherCatV1.24B11,2014-01-14 08:58:00,
2014-01-14 04:03:00,47.0,43.9,29.56,South,175,0.0,1.0,89,0.00,,,0.00,0,WeatherCatV1.24B11,2014-01-14 09:03:00,
2014-01-14 04:08:00,46.9,43.8,29.56,South,175,0.0,2.0,89,0.00,,,0.00,0,WeatherCatV1.24B11,2014-01-14 09:08:00,
2014-01-14 04:13:00,46.8,43.7,29.56,South,175,0.0,0.0,89,0.00,,,0.00,0,WeatherCatV1.24B11,2014-01-14 09:13:00,
2014-01-14 04:18:00,46.8,43.7,29.55,South,175,0.0,0.0,89,0.00,,,0.00,0,WeatherCatV1.24B11,2014-01-14 09:18:00,
2014-01-14 04:23:00,46.7,43.6,29.55,South,175,0.0,0.0,89,0.00,,,0.00,0,WeatherCatV1.24B11,2014-01-14 09:23:00,
2014-01-14 04:28:00,46.7,43.6,29.55,South,175,1.0,2.0,89,0.00,,,0.00,0,WeatherCatV1.24B11,2014-01-14 09:28:00,
2014-01-14 04:33:00,46.7,43.9,29.55,South,175,2.0,2.0,90,0.00,,,0.00,0,WeatherCatV1.24B11,2014-01-14 09:33:00,
2014-01-14 04:38:00,46.7,43.9,29.55,SSE,168,0.0,2.0,90,0.00,,,0.00,0,WeatherCatV1.24B11,2014-01-14 09:38:00,
2014-01-14 04:43:00,46.7,43.9,29.55,SE,144,0.0,1.0,90,0.00,,,0.00,0,WeatherCatV1.24B11,2014-01-14 09:43:00,
2014-01-14 04:48:00,46.7,43.9,29.55,South,191,1.0,2.0,90,0.00,,,0.00,0,WeatherCatV1.24B11,2014-01-14 09:48:00,
2014-01-14 04:53:00,46.7,43.9,29.55,South,171,0.0,0.0,90,0.00,,,0.00,0,WeatherCatV1.24B11,2014-01-14 09:53:00,
2014-01-14 04:58:00,46.7,43.9,29.56,South,184,0.0,1.0,90,0.00,,,0.00,0,WeatherCatV1.24B11,2014-01-14 09:58:00,
2014-01-14 05:03:00,46.7,43.9,29.56,South,186,0.0,0.0,90,0.00,,,0.00,0,WeatherCatV1.24B11,2014-01-14 10:03:00,
2014-01-14 05:08:00,46.7,43.9,29.56,South,178,0.0,2.0,90,0.00,,,0.00,0,WeatherCatV1.24B11,2014-01-14 10:08:00,
2014-01-14 05:13:00,46.8,44.0,29.55,SSE,161,2.0,3.0,90,0.00,,,0.00,0,WeatherCatV1.24B11,2014-01-14 10:13:00,
2014-01-14 05:18:00,46.8,44.0,29.55,SSE,165,1.0,2.0,90,0.00,,,0.00,0,WeatherCatV1.24B11,2014-01-14 10:18:00,
2014-01-14 05:23:00,46.9,44.1,29.55,South,178,4.0,5.0,90,0.00,,,0.00,0,WeatherCatV1.24B11,2014-01-14 10:23:00,
2014-01-14 05:28:00,46.9,44.1,29.55,South,187,4.0,7.0,90,0.00,,,0.00,0,WeatherCatV1.24B11,2014-01-14 10:28:00,
2014-01-14 05:33:00,47.0,44.2,29.55,South,173,4.0,6.0,90,0.00,,,0.00,0,WeatherCatV1.24B11,2014-01-14 10:33:00,
2014-01-14 05:38:00,47.1,44.3,29.55,SSE,159,0.0,7.0,90,0.00,,,0.00,0,WeatherCatV1.24B11,2014-01-14 10:38:00,
2014-01-14 05:43:00,47.1,44.3,29.55,SSE,155,2.0,5.0,90,0.00,,,0.00,0,WeatherCatV1.24B11,2014-01-14 10:43:00,
2014-01-14 05:48:00,47.2,44.4,29.55,South,169,3.0,6.0,90,0.00,,,0.00,0,WeatherCatV1.24B11,2014-01-14 10:48:00,
2014-01-14 05:53:00,47.2,44.4,29.55,South,178,3.0,4.0,90,0.00,,,0.00,0,WeatherCatV1.24B11,2014-01-14 10:53:00,
2014-01-14 05:58:00,47.3,44.5,29.55,South,173,0.0,2.0,90,0.00,,,0.00,0,WeatherCatV1.24B11,2014-01-14 10:58:00,
2014-01-14 06:03:00,47.3,44.5,29.56,South,180,3.0,4.0,90,0.00,,,0.00,0,WeatherCatV1.24B11,2014-01-14 11:03:00,
2014-01-14 06:08:00,47.2,44.4,29.56,SSE,161,3.0,7.0,90,0.00,,,0.00,0,WeatherCatV1.24B11,2014-01-14 11:08:00,
2014-01-14 06:13:00,47.3,44.5,29.55,SSE,162,2.0,4.0,90,0.00,,,0.00,0,WeatherCatV1.24B11,2014-01-14 11:13:00,
2014-01-14 06:18:00,47.3,44.5,29.56,South,182,3.0,3.0,90,0.00,,,0.00,0,WeatherCatV1.24B11,2014-01-14 11:18:00,
2014-01-14 06:23:00,47.3,44.5,29.56,SSE,167,0.0,2.0,90,0.00,,,0.00,0,WeatherCatV1.24B11,2014-01-14 11:23:00,
2014-01-14 06:28:00,47.3,44.5,29.56,South,171,1.0,2.0,90,0.00,,,0.00,0,WeatherCatV1.24B11,2014-01-14 11:28:00,
2014-01-14 06:33:00,47.3,44.2,29.56,SSE,159,2.0,5.0,89,0.00,,,0.00,0,WeatherCatV1.24B11,2014-01-14 11:33:00,
2014-01-14 06:38:00,47.2,44.1,29.57,SSE,157,0.0,3.0,89,0.00,,,0.00,0,WeatherCatV1.24B11,2014-01-14 11:38:00,
2014-01-14 06:43:00,47.2,44.1,29.56,South,178,0.0,6.0,89,0.00,,,0.00,0,WeatherCatV1.24B11,2014-01-14 11:43:00,
2014-01-14 06:48:00,47.3,44.2,29.56,SSE,155,2.0,4.0,89,0.00,,,0.00,0,WeatherCatV1.24B11,2014-01-14 11:48:00,
2014-01-14 06:53:00,47.3,44.2,29.56,SSE,167,1.0,4.0,89,0.00,,,0.00,0,WeatherCatV1.24B11,2014-01-14 11:53:00,
2014-01-14 06:58:00,47.3,44.2,29.56,South,175,4.0,4.0,89,0.00,,,0.00,0,WeatherCatV1.24B11,2014-01-14 11:58:00,
2014-01-14 07:03:00,47.2,44.1,29.56,South,186,0.0,3.0,89,0.00,,,0.00,0,WeatherCatV1.24B11,2014-01-14 12:03:00,
2014-01-14 07:08:00,47.2,44.1,29.55,SSE,160,0.0,4.0,89,0.00,,,0.00,0,WeatherCatV1.24B11,2014-01-14 12:08:00,
2014-01-14 07:13:00,47.2,44.1,29.56,South,170,1.0,3.0,89,0.00,,,0.00,0,WeatherCatV1.24B11,2014-01-14 12:13:00,
2014-01-14 07:18:00,47.2,44.1,29.56,South,180,0.0,0.0,89,0.00,,,0.00,0,WeatherCatV1.24B11,2014-01-14 12:18:00,
2014-01-14 07:23:00,47.1,44.0,29.56,SSE,161,0.0,1.0,89,0.00,,,0.00,0,WeatherCatV1.24B11,2014-01-14 12:23:00,
2014-01-14 07:28:00,47.1,44.0,29.55,South,176,1.0,3.0,89,0.00,,,0.00,0,WeatherCatV1.24B11,2014-01-14 12:28:00,
2014-01-14 07:33:00,47.1,44.0,29.55,SSE,147,2.0,3.0,89,0.00,,,0.00,0,WeatherCatV1.24B11,2014-01-14 12:33:00,
2014-01-14 07:38:00,47.1,44.0,29.55,SSW,192,1.0,4.0,89,0.00,,,0.00,7,WeatherCatV1.24B11,2014-01-14 12:38:00,
2014-01-14 07:43:00,47.1,44.0,29.55,SSE,150,2.0,5.0,89,0.00,,,0.00,9,WeatherCatV1.24B11,2014-01-14 12:43:00,
2014-01-14 07:48:00,47.1,44.0,29.56,South,173,2.0,4.0,89,0.00,,,0.00,9,WeatherCatV1.24B11,2014-01-14 12:48:00,
2014-01-14 07:53:00,47.1,44.0,29.56,SSE,159,1.0,4.0,89,0.00,,,0.00,11,WeatherCatV1.24B11,2014-01-14 12:53:00,
2014-01-14 07:58:00,47.1,44.0,29.55,SSE,167,4.0,5.0,89,0.00,,,0.00,14,WeatherCatV1.24B11,2014-01-14 12:58:00,
2014-01-14 08:03:00,47.1,44.0,29.55,SSE,163,1.0,3.0,89,0.00,,,0.00,16,WeatherCatV1.24B11,2014-01-14 13:03:00,
2014-01-14 08:08:00,47.2,44.1,29.56,South,177,4.0,4.0,89,0.00,,,0.00,14,WeatherCatV1.24B11,2014-01-14 13:08:00,
2014-01-14 08:13:00,47.2,44.1,29.56,South,173,6.0,6.0,89,0.00,,,0.00,18,WeatherCatV1.24B11,2014-01-14 13:13:00,
2014-01-14 08:18:00,47.2,44.1,29.56,SSE,157,2.0,3.0,89,0.00,,,0.00,21,WeatherCatV1.24B11,2014-01-14 13:18:00,
2014-01-14 08:23:00,47.2,44.1,29.56,South,175,3.0,5.0,89,0.00,,,0.00,23,WeatherCatV1.24B11,2014-01-14 13:23:00,
2014-01-14 08:28:00,47.2,44.1,29.55,South,169,1.0,2.0,89,0.00,,,0.00,25,WeatherCatV1.24B11,2014-01-14 13:28:00,
2014-01-14 08:33:00,47.2,44.1,29.55,South,175,1.0,4.0,89,0.00,,,0.00,23,WeatherCatV1.24B11,2014-01-14 13:33:00,
2014-01-14 08:38:00,47.3,44.2,29.56,South,188,3.0,4.0,89,0.00,,,0.00,23,WeatherCatV1.24B11,2014-01-14 13:38:00,
2014-01-14 08:43:00,47.3,43.9,29.56,SSE,165,1.0,1.0,88,0.00,,,0.00,18,WeatherCatV1.24B11,2014-01-14 13:43:00,
2014-01-14 08:48:00,47.3,43.9,29.56,SSE,162,2.0,5.0,88,0.00,,,0.00,25,WeatherCatV1.24B11,2014-01-14 13:48:00,
2014-01-14 08:53:00,47.3,43.9,29.56,South,182,0.0,6.0,88,0.00,,,0.00,28,WeatherCatV1.24B11,2014-01-14 13:53:00,
2014-01-14 08:58:00,47.3,43.9,29.56,SSE,154,2.0,2.0,88,0.00,,,0.00,33,WeatherCatV1.24B11,2014-01-14 13:58:00,
2014-01-14 09:03:00,47.3,43.9,29.57,South,175,1.0,3.0,88,0.00,,,0.00,28,WeatherCatV1.24B11,2014-01-14 14:03:00,
2014-01-14 09:08:00,47.3,43.9,29.57,South,174,2.0,2.0,88,0.00,,,0.00,33,WeatherCatV1.24B11,2014-01-14 14:08:00,
2014-01-14 09:13:00,47.3,43.9,29.57,South,171,3.0,3.0,88,0.00,,,0.00,44,WeatherCatV1.24B11,2014-01-14 14:13:00,
2014-01-14 09:18:00,47.3,43.9,29.58,South,178,3.0,6.0,88,0.00,,,0.00,56,WeatherCatV1.24B11,2014-01-14 14:18:00,
2014-01-14 09:23:00,47.3,43.9,29.57,SSE,166,2.0,7.0,88,0.00,,,0.00,69,WeatherCatV1.24B11,2014-01-14 14:23:00,
2014-01-14 09:28:00,47.4,44.0,29.57,South,170,2.0,10.0,88,0.00,,,0.00,72,WeatherCatV1.24B11,2014-01-14 14:28:00,
2014-01-14 09:33:00,47.4,44.0,29.57,South,175,3.0,12.0,88,0.00,,,0.00,86,WeatherCatV1.24B11,2014-01-14 14:33:00,
2014-01-14 09:38:00,47.5,44.1,29.56,SE,132,1.0,4.0,88,0.00,,,0.00,76,WeatherCatV1.24B11,2014-01-14 14:38:00,
2014-01-14 09:43:00,47.6,43.9,29.57,SSE,163,2.0,7.0,87,0.00,,,0.00,79,WeatherCatV1.24B11,2014-01-14 14:43:00,
2014-01-14 09:48:00,47.7,44.0,29.56,SSE,152,3.0,6.0,87,0.00,,,0.00,69,WeatherCatV1.24B11,2014-01-14 14:48:00,
2014-01-14 09:53:00,47.8,44.1,29.56,SE,140,2.0,6.0,87,0.00,,,0.00,72,WeatherCatV1.24B11,2014-01-14 14:53:00,
2014-01-14 09:58:00,47.8,44.1,29.56,SSE,162,2.0,6.0,87,0.00,,,0.00,121,WeatherCatV1.24B11,2014-01-14 14:58:00,
2014-01-14 10:03:00,47.9,44.2,29.56,SSW,196,3.0,11.0,87,0.00,,,0.00,79,WeatherCatV1.24B11,2014-01-14 15:03:00,
2014-01-14 10:08:00,47.9,43.9,29.56,South,175,5.0,7.0,86,0.00,,,0.00,44,WeatherCatV1.24B11,2014-01-14 15:08:00,
2014-01-14 10:13:00,47.9,43.9,29.57,SSE,161,4.0,6.0,86,0.00,,,0.00,26,WeatherCatV1.24B11,2014-01-14 15:13:00,
2014-01-14 10:18:00,47.9,43.9,29.57,SSE,165,2.0,6.0,86,0.00,,,0.00,25,WeatherCatV1.24B11,2014-01-14 15:18:00,
2014-01-14 10:23:00,47.8,43.8,29.57,South,171,5.0,7.0,86,0.00,,,0.00,33,WeatherCatV1.24B11,2014-01-14 15:23:00,
2014-01-14 10:28:00,47.7,44.0,29.57,South,185,5.0,8.0,87,0.00,,,0.00,37,WeatherCatV1.24B11,2014-01-14 15:28:00,
2014-01-14 10:33:00,47.6,43.9,29.56,SSW,198,6.0,9.0,87,0.00,,,0.01,35,WeatherCatV1.24B11,2014-01-14 15:33:00,
2014-01-14 10:38:00,47.5,43.8,29.56,South,180,3.0,6.0,87,0.00,,,0.01,42,WeatherCatV1.24B11,2014-01-14 15:38:00,
2014-01-14 10:43:00,47.3,43.6,29.55,South,170,2.0,7.0,87,0.00,,,0.01,35,WeatherCatV1.24B11,2014-01-14 15:43:00,
2014-01-14 10:48:00,47.2,43.8,29.55,SSE,159,3.0,4.0,88,0.00,,,0.01,44,WeatherCatV1.24B11,2014-01-14 15:48:00,
2014-01-14 10:53:00,47.2,43.8,29.55,South,172,3.0,6.0,88,0.00,,,0.01,37,WeatherCatV1.24B11,2014-01-14 15:53:00,
2014-01-14 10:58:00,47.1,43.7,29.54,SE,145,0.0,3.0,88,0.00,,,0.02,54,WeatherCatV1.24B11,2014-01-14 15:58:00,
2014-01-14 11:03:00,47.0,43.6,29.53,SSE,152,0.0,6.0,88,0.00,,,0.02,49,WeatherCatV1.24B11,2014-01-14 16:03:00,
2014-01-14 11:08:00,46.9,43.8,29.52,SE,126,3.0,3.0,89,0.00,,,0.02,67,WeatherCatV1.24B11,2014-01-14 16:08:00,
2014-01-14 11:13:00,46.9,43.8,29.52,SSE,149,0.0,2.0,89,0.00,,,0.02,63,WeatherCatV1.24B11,2014-01-14 16:13:00,
2014-01-14 11:18:00,46.9,43.8,29.51,South,173,1.0,3.0,89,0.00,,,0.02,56,WeatherCatV1.24B11,2014-01-14 16:18:00,
2014-01-14 11:23:00,46.9,43.8,29.51,SSE,165,0.0,2.0,89,0.00,,,0.03,62,WeatherCatV1.24B11,2014-01-14 16:23:00,
2014-01-14 11:28:00,46.9,44.1,29.50,SSE,165,0.0,1.0,90,0.00,,,0.03,69,WeatherCatV1.24B11,2014-01-14 16:28:00,
2014-01-14 11:33:00,46.9,44.1,29.50,South,188,3.0,3.0,90,0.00,,,0.03,60,WeatherCatV1.24B11,2014-01-14 16:33:00,
2014-01-14 11:38:00,46.9,44.1,29.50,South,178,0.0,0.0,90,0.00,,,0.03,56,WeatherCatV1.24B11,2014-01-14 16:38:00,
2014-01-14 11:43:00,47.0,44.2,29.49,South,180,1.0,1.0,90,0.00,,,0.03,49,WeatherCatV1.24B11,2014-01-14 16:43:00,
2014-01-14 11:48:00,47.0,44.2,29.49,SE,141,0.0,1.0,90,0.00,,,0.03,44,WeatherCatV1.24B11,2014-01-14 16:48:00,
2014-01-14 11:53:00,47.0,44.2,29.49,South,175,1.0,2.0,90,0.00,,,0.03,40,WeatherCatV1.24B11,2014-01-14 16:53:00,
2014-01-14 11:58:00,47.0,44.2,29.50,South,175,0.0,2.0,90,0.00,,,0.03,44,WeatherCatV1.24B11,2014-01-14 16:58:00,
2014-01-14 12:03:00,47.0,44.2,29.50,South,171,0.0,2.0,90,0.00,,,0.03,44,WeatherCatV1.24B11,2014-01-14 17:03:00,
2014-01-14 12:08:00,47.1,44.3,29.50,South,171,0.0,0.0,90,0.00,,,0.03,30,WeatherCatV1.24B11,2014-01-14 17:08:00,
2014-01-14 12:13:00,47.0,44.2,29.49,South,171,0.0,0.0,90,0.00,,,0.04,37,WeatherCatV1.24B11,2014-01-14 17:13:00,
2014-01-14 12:18:00,47.0,44.5,29.49,South,171,0.0,0.0,91,0.00,,,0.04,25,WeatherCatV1.24B11,2014-01-14 17:18:00,
2014-01-14 12:23:00,47.0,44.5,29.49,South,171,0.0,0.0,91,0.00,,,0.04,33,WeatherCatV1.24B11,2014-01-14 17:23:00,
2014-01-14 12:28:00,47.0,44.5,29.50,South,172,0.0,1.0,91,0.05,,,0.05,19,WeatherCatV1.24B11,2014-01-14 17:28:00,
2014-01-14 12:33:00,47.0,44.5,29.48,WSW,249,0.0,0.0,91,0.07,,,0.06,32,WeatherCatV1.24B11,2014-01-14 17:33:00,
2014-01-14 12:38:00,47.0,44.5,29.48,WSW,250,0.0,0.0,91,0.07,,,0.06,33,WeatherCatV1.24B11,2014-01-14 17:38:00,
2014-01-14 12:43:00,47.0,44.5,29.48,WSW,237,0.0,2.0,91,0.07,,,0.07,33,WeatherCatV1.24B11,2014-01-14 17:43:00,
2014-01-14 12:48:00,47.0,44.5,29.48,WSW,237,0.0,0.0,91,0.08,,,0.08,26,WeatherCatV1.24B11,2014-01-14 17:48:00,
2014-01-14 12:53:00,47.0,44.5,29.48,WSW,237,1.0,1.0,91,0.08,,,0.08,28,WeatherCatV1.24B11,2014-01-14 17:53:00,
2014-01-14 12:58:00,47.0,44.5,29.48,WSW,237,0.0,1.0,91,0.06,,,0.08,23,WeatherCatV1.24B11,2014-01-14 17:58:00,
2014-01-14 13:03:00,47.0,44.5,29.48,WSW,237,1.0,1.0,91,0.05,,,0.09,25,WeatherCatV1.24B11,2014-01-14 18:03:00,
2014-01-14 13:08:00,47.1,44.6,29.48,WSW,237,0.0,0.0,91,0.05,,,0.09,21,WeatherCatV1.24B11,2014-01-14 18:08:00,
2014-01-14 13:13:00,47.0,44.5,29.47,WSW,237,0.0,0.0,91,0.06,,,0.10,33,WeatherCatV1.24B11,2014-01-14 18:13:00,
2014-01-14 13:18:00,47.1,44.6,29.47,SW,230,0.0,0.0,91,0.06,,,0.10,28,WeatherCatV1.24B11,2014-01-14 18:18:00,
2014-01-14 13:23:00,47.1,44.6,29.46,SW,231,0.0,0.0,91,0.05,,,0.10,28,WeatherCatV1.24B11,2014-01-14 18:23:00,
2014-01-14 13:28:00,47.2,45.0,29.46,SW,231,1.0,1.0,92,0.00,,,0.10,28,WeatherCatV1.24B11,2014-01-14 18:28:00,
2014-01-14 13:33:00,47.2,45.0,29.46,SW,231,0.0,0.0,92,0.00,,,0.11,33,WeatherCatV1.24B11,2014-01-14 18:33:00,
2014-01-14 13:38:00,47.3,45.1,29.46,SSW,208,0.0,2.0,92,0.00,,,0.11,25,WeatherCatV1.24B11,2014-01-14 18:38:00,
2014-01-14 13:43:00,47.3,45.1,29.45,SSW,207,0.0,0.0,92,0.00,,,0.11,28,WeatherCatV1.24B11,2014-01-14 18:43:00,
2014-01-14 13:48:00,47.3,45.1,29.45,SSW,207,1.0,2.0,92,0.04,,,0.12,28,WeatherCatV1.24B11,2014-01-14 18:48:00,
2014-01-14 13:53:00,47.3,45.1,29.45,SSW,207,0.0,2.0,92,0.04,,,0.12,23,WeatherCatV1.24B11,2014-01-14 18:53:00,
2014-01-14 13:58:00,47.3,45.1,29.44,SSW,207,0.0,0.0,92,0.04,,,0.12,23,WeatherCatV1.24B11,2014-01-14 18:58:00,
2014-01-14 14:03:00,47.3,45.1,29.45,SSW,207,0.0,0.0,92,0.00,,,0.12,26,WeatherCatV1.24B11,2014-01-14 19:03:00,
2014-01-14 14:08:00,47.3,45.1,29.45,SSW,207,0.0,0.0,92,0.00,,,0.13,23,WeatherCatV1.24B11,2014-01-14 19:08:00,
2014-01-14 14:13:00,47.3,45.1,29.44,SSW,207,0.0,0.0,92,0.00,,,0.13,23,WeatherCatV1.24B11,2014-01-14 19:13:00,
2014-01-14 14:18:00,47.3,45.1,29.45,SSW,207,0.0,0.0,92,0.00,,,0.13,16,WeatherCatV1.24B11,2014-01-14 19:18:00,
2014-01-14 14:23:00,47.2,45.0,29.45,SSW,207,0.0,0.0,92,0.00,,,0.13,14,WeatherCatV1.24B11,2014-01-14 19:23:00,
2014-01-14 14:28:00,47.3,45.1,29.44,SSW,207,0.0,0.0,92,0.00,,,0.14,16,WeatherCatV1.24B11,2014-01-14 19:28:00,
2014-01-14 14:33:00,47.3,45.1,29.44,SSW,207,0.0,0.0,92,0.00,,,0.14,12,WeatherCatV1.24B11,2014-01-14 19:33:00,
2014-01-14 14:38:00,47.2,45.0,29.44,SSW,207,0.0,0.0,92,0.00,,,0.14,14,WeatherCatV1.24B11,2014-01-14 19:38:00,
2014-01-14 14:43:00,47.2,45.0,29.44,SSW,207,0.0,0.0,92,0.00,,,0.14,9,WeatherCatV1.24B11,2014-01-14 19:43:00,
2014-01-14 14:48:00,47.2,45.0,29.44,SSW,207,0.0,0.0,92,0.00,,,0.15,14,WeatherCatV1.24B11,2014-01-14 19:48:00,
2014-01-14 14:53:00,47.2,45.0,29.43,SSW,207,0.0,0.0,92,0.00,,,0.15,18,WeatherCatV1.24B11,2014-01-14 19:53:00,
2014-01-14 14:58:00,47.2,45.0,29.43,SSW,207,0.0,0.0,92,0.00,,,0.15,11,WeatherCatV1.24B11,2014-01-14 19:58:00,
2014-01-14 15:03:00,47.2,45.0,29.43,SSW,207,0.0,0.0,92,0.05,,,0.16,11,WeatherCatV1.24B11,2014-01-14 20:03:00,
2014-01-14 15:08:00,47.3,45.4,29.43,SSW,207,0.0,0.0,93,0.05,,,0.16,11,WeatherCatV1.24B11,2014-01-14 20:08:00,
2014-01-14 15:13:00,47.3,45.4,29.43,SSW,207,0.0,0.0,93,0.05,,,0.17,7,WeatherCatV1.24B11,2014-01-14 20:13:00,
2014-01-14 15:18:00,47.3,45.1,29.43,SSW,207,0.0,0.0,92,0.10,,,0.18,7,WeatherCatV1.24B11,2014-01-14 20:18:00,
2014-01-14 15:23:00,47.3,45.4,29.42,SSW,207,0.0,0.0,93,0.10,,,0.18,7,WeatherCatV1.24B11,2014-01-14 20:23:00,
2014-01-14 15:28:00,47.3,45.4,29.41,SSW,207,0.0,0.0,93,0.07,,,0.19,5,WeatherCatV1.24B11,2014-01-14 20:28:00,
2014-01-14 15:33:00,47.2,45.0,29.41,SSW,207,0.0,0.0,92,0.08,,,0.20,5,WeatherCatV1.24B11,2014-01-14 20:33:00,
2014-01-14 15:38:00,47.2,45.0,29.41,SSW,207,0.0,0.0,92,0.08,,,0.20,5,WeatherCatV1.24B11,2014-01-14 20:38:00,
2014-01-14 15:43:00,47.2,45.0,29.41,SSW,207,0.0,0.0,92,0.06,,,0.20,0,WeatherCatV1.24B11,2014-01-14 20:43:00,
2014-01-14 15:48:00,47.1,44.9,29.42,SSW,207,0.0,0.0,92,0.04,,,0.21,0,WeatherCatV1.24B11,2014-01-14 20:48:00,
2014-01-14 15:53:00,47.1,45.2,29.41,SSW,207,0.0,0.0,93,0.10,,,0.22,0,WeatherCatV1.24B11,2014-01-14 20:53:00,
2014-01-14 15:58:00,47.0,45.1,29.41,SSW,207,0.0,0.0,93,0.10,,,0.22,0,WeatherCatV1.24B11,2014-01-14 20:58:00,
2014-01-14 16:03:00,47.0,45.1,29.41,SSW,207,0.0,0.0,93,0.08,,,0.23,0,WeatherCatV1.24B11,2014-01-14 21:03:00,
2014-01-14 16:08:00,46.9,45.0,29.41,SSW,207,0.0,0.0,93,0.09,,,0.24,0,WeatherCatV1.24B11,2014-01-14 21:08:00,
2014-01-14 16:13:00,46.9,45.0,29.41,SSW,207,0.0,0.0,93,0.09,,,0.24,0,WeatherCatV1.24B11,2014-01-14 21:13:00,
2014-01-14 16:18:00,46.9,45.0,29.40,SSW,207,0.0,0.0,93,0.07,,,0.25,0,WeatherCatV1.24B11,2014-01-14 21:18:00,
2014-01-14 16:23:00,46.9,45.0,29.40,SSW,208,0.0,0.0,93,0.07,,,0.25,0,WeatherCatV1.24B11,2014-01-14 21:23:00,
2014-01-14 16:28:00,46.8,44.9,29.39,SSW,208,0.0,0.0,93,0.08,,,0.26,0,WeatherCatV1.24B11,2014-01-14 21:28:00,
2014-01-14 16:33:00,46.8,44.9,29.39,SSW,208,0.0,0.0,93,0.07,,,0.27,0,WeatherCatV1.24B11,2014-01-14 21:33:00,
2014-01-14 16:38:00,46.8,44.9,29.38,SSW,208,0.0,0.0,93,0.11,,,0.28,0,WeatherCatV1.24B11,2014-01-14 21:38:00,
2014-01-14 16:43:00,46.7,44.8,29.38,SSW,207,0.0,0.0,93,0.10,,,0.28,0,WeatherCatV1.24B11,2014-01-14 21:43:00,
2014-01-14 16:48:00,46.7,44.8,29.38,SSW,208,0.0,0.0,93,0.08,,,0.29,0,WeatherCatV1.24B11,2014-01-14 21:48:00,
2014-01-14 16:53:00,46.6,44.7,29.38,SSW,208,0.0,0.0,93,0.10,,,0.30,0,WeatherCatV1.24B11,2014-01-14 21:53:00,
2014-01-14 16:58:00,46.5,44.6,29.38,SSW,207,0.0,0.0,93,0.10,,,0.31,0,WeatherCatV1.24B11,2014-01-14 21:58:00,
2014-01-14 17:03:00,46.4,44.5,29.39,SSW,208,0.0,0.0,93,0.15,,,0.32,0,WeatherCatV1.24B11,2014-01-14 22:03:00,
2014-01-14 17:08:00,46.3,44.4,29.38,SSW,208,0.0,0.0,93,0.12,,,0.33,0,WeatherCatV1.24B11,2014-01-14 22:08:00,
2014-01-14 17:13:00,46.2,44.3,29.38,SSW,208,0.0,0.0,93,0.14,,,0.34,0,WeatherCatV1.24B11,2014-01-14 22:13:00,
2014-01-14 17:18:00,46.1,44.2,29.38,SSW,208,0.0,0.0,93,0.11,,,0.35,0,WeatherCatV1.24B11,2014-01-14 22:18:00,
2014-01-14 17:23:00,46.1,44.2,29.38,SSW,207,0.0,0.0,93,0.12,,,0.36,0,WeatherCatV1.24B11,2014-01-14 22:23:00,
2014-01-14 17:28:00,46.0,44.1,29.38,SSW,208,0.0,0.0,93,0.08,,,0.37,0,WeatherCatV1.24B11,2014-01-14 22:28:00,
2014-01-14 17:33:00,45.9,44.0,29.38,SSW,208,0.0,0.0,93,0.14,,,0.38,0,WeatherCatV1.24B11,2014-01-14 22:33:00,
2014-01-14 17:38:00,45.9,44.0,29.37,SSW,208,0.0,0.0,93,0.09,,,0.39,0,WeatherCatV1.24B11,2014-01-14 22:38:00,
2014-01-14 17:43:00,45.9,44.0,29.36,SSW,208,0.0,0.0,93,0.17,,,0.40,0,WeatherCatV1.24B11,2014-01-14 22:43:00,
2014-01-14 17:48:00,45.9,44.0,29.38,SSW,208,0.0,0.0,93,0.10,,,0.41,0,WeatherCatV1.24B11,2014-01-14 22:48:00,
2014-01-14 17:53:00,45.9,44.0,29.38,SSW,207,0.0,0.0,93,0.13,,,0.42,0,WeatherCatV1.24B11,2014-01-14 22:53:00,
2014-01-14 17:58:00,45.9,44.0,29.37,SSW,209,0.0,2.0,93,0.23,,,0.44,0,WeatherCatV1.24B11,2014-01-14 22:58:00,
2014-01-14 18:03:00,45.8,43.9,29.39,SSW,209,0.0,0.0,93,0.14,,,0.45,0,WeatherCatV1.24B11,2014-01-14 23:03:00,
2014-01-14 18:08:00,45.8,43.9,29.38,SSW,209,0.0,0.0,93,0.12,,,0.46,0,WeatherCatV1.24B11,2014-01-14 23:08:00,
2014-01-14 18:13:00,45.8,43.9,29.37,West,271,0.0,2.0,93,0.11,,,0.47,0,WeatherCatV1.24B11,2014-01-14 23:13:00,
2014-01-14 18:18:00,45.9,44.0,29.37,West,271,0.0,1.0,93,0.14,,,0.48,0,WeatherCatV1.24B11,2014-01-14 23:18:00,
2014-01-14 18:23:00,45.9,44.0,29.37,West,271,0.0,0.0,93,0.08,,,0.48,0,WeatherCatV1.24B11,2014-01-14 23:23:00,
2014-01-14 18:28:00,45.9,44.0,29.37,West,271,0.0,0.0,93,0.06,,,0.49,0,WeatherCatV1.24B11,2014-01-14 23:28:00,
2014-01-14 18:33:00,45.9,44.0,29.36,West,271,0.0,0.0,93,0.06,,,0.49,0,WeatherCatV1.24B11,2014-01-14 23:33:00,
2014-01-14 18:38:00,45.9,44.0,29.36,West,271,0.0,0.0,93,0.06,,,0.50,0,WeatherCatV1.24B11,2014-01-14 23:38:00,
2014-01-14 18:43:00,45.8,43.9,29.36,West,271,0.0,1.0,93,0.06,,,0.50,0,WeatherCatV1.24B11,2014-01-14 23:43:00,
2014-01-14 18:48:00,45.8,43.9,29.36,West,271,2.0,2.0,93,0.06,,,0.51,0,WeatherCatV1.24B11,2014-01-14 23:48:00,
2014-01-14 18:53:00,45.7,43.8,29.36,West,271,2.0,2.0,93,0.06,,,0.51,0,WeatherCatV1.24B11,2014-01-14 23:53:00,
2014-01-14 18:58:00,45.7,43.8,29.36,West,271,0.0,0.0,93,0.08,,,0.52,0,WeatherCatV1.24B11,2014-01-14 23:58:00,
2014-01-14 19:03:00,45.6,43.7,29.36,West,271,0.0,1.0,93,0.06,,,0.52,0,WeatherCatV1.24B11,2014-01-15 00:03:00,
2014-01-14 19:08:00,45.5,43.6,29.36,NW,308,0.0,0.0,93,0.06,,,0.53,0,WeatherCatV1.24B11,2014-01-15 00:08:00,
2014-01-14 19:13:00,45.4,43.5,29.36,NW,307,0.0,1.0,93,0.10,,,0.54,0,WeatherCatV1.24B11,2014-01-15 00:13:00,
2014-01-14 19:18:00,45.4,43.5,29.36,WNW,301,0.0,1.0,93,0.07,,,0.54,0,WeatherCatV1.24B11,2014-01-15 00:18:00,
2014-01-14 19:23:00,45.3,43.4,29.36,NW,306,0.0,1.0,93,0.05,,,0.55,0,WeatherCatV1.24B11,2014-01-15 00:23:00,
2014-01-14 19:28:00,45.1,43.2,29.37,NW,304,0.0,2.0,93,0.05,,,0.55,0,WeatherCatV1.24B11,2014-01-15 00:28:00,
2014-01-14 19:33:00,45.0,43.1,29.37,SW,231,1.0,2.0,93,0.05,,,0.55,0,WeatherCatV1.24B11,2014-01-15 00:33:00,
2014-01-14 19:38:00,45.0,43.1,29.38,NW,315,1.0,1.0,93,0.04,,,0.56,0,WeatherCatV1.24B11,2014-01-15 00:38:00,
2014-01-14 19:43:00,44.9,43.0,29.39,NW,310,3.0,3.0,93,0.04,,,0.56,0,WeatherCatV1.24B11,2014-01-15 00:43:00,
2014-01-14 19:48:00,44.8,42.9,29.38,WNW,295,1.0,6.0,93,0.07,,,0.57,0,WeatherCatV1.24B11,2014-01-15 00:48:00,
2014-01-14 19:53:00,44.7,42.8,29.38,West,281,2.0,7.0,93,0.12,,,0.58,0,WeatherCatV1.24B11,2014-01-15 00:53:00,
2014-01-14 19:58:00,44.6,42.7,29.38,NW,304,0.0,5.0,93,0.07,,,0.59,0,WeatherCatV1.24B11,2014-01-15 00:58:00,
2014-01-14 20:03:00,44.5,42.6,29.38,WNW,302,1.0,4.0,93,0.07,,,0.59,0,WeatherCatV1.24B11,2014-01-15 01:03:00,
2014-01-14 20:08:00,44.3,42.4,29.38,NW,309,2.0,4.0,93,0.08,,,0.60,0,WeatherCatV1.24B11,2014-01-15 01:08:00,
2014-01-14 20:13:00,44.2,42.3,29.38,West,266,0.0,3.0,93,0.08,,,0.60,0,WeatherCatV1.24B11,2014-01-15 01:13:00,
2014-01-14 20:18:00,44.0,42.1,29.39,West,273,0.0,3.0,93,0.05,,,0.60,0,WeatherCatV1.24B11,2014-01-15 01:18:00,
2014-01-14 20:23:00,43.9,42.0,29.38,NW,311,0.0,2.0,93,0.04,,,0.60,0,WeatherCatV1.24B11,2014-01-15 01:23:00,
2014-01-14 20:28:00,43.8,41.9,29.39,NW,312,0.0,1.0,93,0.04,,,0.60,0,WeatherCatV1.24B11,2014-01-15 01:28:00,
2014-01-14 20:33:00,43.7,41.8,29.39,NW,306,0.0,2.0,93,0.04,,,0.60,0,WeatherCatV1.24B11,2014-01-15 01:33:00,
2014-01-14 20:38:00,43.6,41.7,29.39,WNW,299,0.0,2.0,93,0.04,,,0.60,0,WeatherCatV1.24B11,2014-01-15 01:38:00,
2014-01-14 20:43:00,43.5,41.6,29.40,WNW,299,0.0,2.0,93,0.00,,,0.60,0,WeatherCatV1.24B11,2014-01-15 01:43:00,
2014-01-14 20:48:00,43.4,41.5,29.39,WNW,299,0.0,1.0,93,0.00,,,0.60,0,WeatherCatV1.24B11,2014-01-15 01:48:00,
2014-01-14 20:53:00,43.4,41.5,29.37,WNW,299,0.0,2.0,93,0.00,,,0.60,0,WeatherCatV1.24B11,2014-01-15 01:53:00,
2014-01-14 20:58:00,43.3,41.4,29.37,WNW,299,0.0,0.0,93,0.00,,,0.60,0,WeatherCatV1.24B11,2014-01-15 01:58:00,
2014-01-14 21:03:00,43.3,41.7,29.36,WNW,299,3.0,3.0,94,0.00,,,0.60,0,WeatherCatV1.24B11,2014-01-15 02:03:00,
2014-01-14 21:08:00,43.2,41.6,29.35,WNW,299,0.0,0.0,94,0.00,,,0.60,0,WeatherCatV1.24B11,2014-01-15 02:08:00,
2014-01-14 21:13:00,43.2,41.6,29.35,WNW,299,0.0,0.0,94,0.00,,,0.60,0,WeatherCatV1.24B11,2014-01-15 02:13:00,
2014-01-14 21:18:00,43.1,41.2,29.34,WNW,299,0.0,0.0,93,0.00,,,0.60,0,WeatherCatV1.24B11,2014-01-15 02:18:00,
2014-01-14 21:23:00,43.0,41.1,29.34,WNW,299,0.0,0.0,93,0.00,,,0.60,0,WeatherCatV1.24B11,2014-01-15 02:23:00,
2014-01-14 21:28:00,43.0,41.1,29.35,WNW,299,0.0,0.0,93,0.00,,,0.60,0,WeatherCatV1.24B11,2014-01-15 02:28:00,
2014-01-14 21:33:00,42.9,41.0,29.35,WNW,299,0.0,0.0,93,0.00,,,0.60,0,WeatherCatV1.24B11,2014-01-15 02:33:00,
2014-01-14 21:39:00,42.8,40.9,29.37,WNW,299,0.0,0.0,93,0.00,,,0.60,0,WeatherCatV1.24B11,2014-01-15 02:39:00,
2014-01-14 21:44:00,42.7,40.8,29.38,WNW,299,0.0,0.0,93,0.00,,,0.61,0,WeatherCatV1.24B11,2014-01-15 02:44:00,
2014-01-14 21:49:00,42.5,40.9,29.38,West,264,0.0,4.0,94,0.00,,,0.61,0,WeatherCatV1.24B11,2014-01-15 02:49:00,
2014-01-14 21:54:00,42.5,40.6,29.40,WNW,302,0.0,2.0,93,0.00,,,0.61,0,WeatherCatV1.24B11,2014-01-15 02:54:00,
2014-01-14 21:59:00,42.5,40.6,29.41,North,350,1.0,2.0,93,0.00,,,0.61,0,WeatherCatV1.24B11,2014-01-15 02:59:00,
2014-01-14 22:04:00,42.4,40.5,29.42,WNW,299,0.0,0.0,93,0.00,,,0.61,0,WeatherCatV1.24B11,2014-01-15 03:04:00,
2014-01-14 22:09:00,42.4,40.5,29.42,NNW,340,1.0,2.0,93,0.00,,,0.61,0,WeatherCatV1.24B11,2014-01-15 03:09:00,
2014-01-14 22:14:00,42.4,40.8,29.42,SW,228,1.0,2.0,94,0.00,,,0.61,0,WeatherCatV1.24B11,2014-01-15 03:14:00,
2014-01-14 22:19:00,42.4,40.8,29.42,WSW,257,2.0,6.0,94,0.00,,,0.61,0,WeatherCatV1.24B11,2014-01-15 03:19:00,
2014-01-14 22:24:00,42.4,40.8,29.42,WSW,242,0.0,2.0,94,0.00,,,0.61,0,WeatherCatV1.24B11,2014-01-15 03:24:00,
2014-01-14 22:29:00,42.4,40.8,29.42,SSW,211,0.0,2.0,94,0.00,,,0.61,0,WeatherCatV1.24B11,2014-01-15 03:29:00,
2014-01-14 22:34:00,42.4,40.8,29.42,NW,305,2.0,2.0,94,0.00,,,0.61,0,WeatherCatV1.24B11,2014-01-15 03:34:00,
2014-01-14 22:39:00,42.3,40.7,29.43,NW,304,0.0,2.0,94,0.00,,,0.61,0,WeatherCatV1.24B11,2014-01-15 03:39:00,
2014-01-14 22:44:00,42.2,40.6,29.44,NW,304,0.0,2.0,94,0.00,,,0.61,0,WeatherCatV1.24B11,2014-01-15 03:44:00,
2014-01-14 22:49:00,42.2,40.6,29.44,WNW,302,0.0,1.0,94,0.00,,,0.61,0,WeatherCatV1.24B11,2014-01-15 03:49:00,
2014-01-14 22:54:00,42.2,40.6,29.45,WSW,256,0.0,3.0,94,0.00,,,0.61,0,WeatherCatV1.24B11,2014-01-15 03:54:00,
2014-01-14 22:59:00,42.1,40.5,29.45,NNW,344,0.0,2.0,94,0.00,,,0.61,0,WeatherCatV1.24B11,2014-01-15 03:59:00,
2014-01-14 23:04:00,42.1,40.5,29.45,WSW,239,1.0,3.0,94,0.00,,,0.61,0,WeatherCatV1.24B11,2014-01-15 04:04:00,
2014-01-14 23:09:00,42.1,40.5,29.45,WNW,295,0.0,2.0,94,0.00,,,0.61,0,WeatherCatV1.24B11,2014-01-15 04:09:00,
2014-01-14 23:14:00,42.1,40.5,29.46,West,260,1.0,4.0,94,0.00,,,0.61,0,WeatherCatV1.24B11,2014-01-15 04:14:00,
2014-01-14 23:19:00,42.0,40.4,29.46,SW,222,1.0,4.0,94,0.00,,,0.61,0,WeatherCatV1.24B11,2014-01-15 04:19:00,
2014-01-14 23:24:00,42.1,40.5,29.46,North,355,0.0,2.0,94,0.00,,,0.62,0,WeatherCatV1.24B11,2014-01-15 04:24:00,
2014-01-14 23:29:00,42.1,40.5,29.46,WNW,300,0.0,3.0,94,0.00,,,0.62,0,WeatherCatV1.24B11,2014-01-15 04:29:00,
2014-01-14 23:34:00,42.1,40.5,29.47,West,266,0.0,2.0,94,0.00,,,0.62,0,WeatherCatV1.24B11,2014-01-15 04:34:00,
2014-01-14 23:39:00,42.0,40.4,29.47,SW,233,0.0,3.0,94,0.00,,,0.62,0,WeatherCatV1.24B11,2014-01-15 04:39:00,
2014-01-14 23:44:00,42.0,40.4,29.47,WNW,290,1.0,3.0,94,0.00,,,0.62,0,WeatherCatV1.24B11,2014-01-15 04:44:00,
2014-01-14 23:49:00,42.0,40.4,29.48,NW,307,0.0,2.0,94,0.00,,,0.62,0,WeatherCatV1.24B11,2014-01-15 04:49:00,
2014-01-14 23:54:00,41.9,40.3,29.48,WNW,299,3.0,3.0,94,0.00,,,0.62,0,WeatherCatV1.24B11,2014-01-15 04:54:00,
2014-01-14 23:59:00,41.9,40.3,29.48,WNW,299,0.0,0.0,94,0.00,,,0.62,0,WeatherCatV1.24B11,2014-01-15 04:59:00,